SWA382 KDEN-KMSP

Flight info

Callsign SWA382
Flight time 1h 26m
Altitude 35000
Route CHUWY1 CHUWY KD75A SSWAN TORGY4
Aircraft B738/M-SDE2E3FGHIRWXY/LB1

Departure

Time 2026-05-05 23:29
Airport Denver International Airport (KDEN)

Arrival

Time 2026-05-06 00:55
Airport Minneapolis–Saint Paul International Airport / Wold–Chamberlain Field (KMSP)
Time Latitude Longitude Altitude Speed Heading
2026-05-05 22:59 39.86359 -104.67256 5365 ft 0 kts 181°
2026-05-05 23:14 39.86366 -104.67255 5365 ft 3 kts 181°
2026-05-05 23:14 39.86383 -104.67255 5363 ft 3 kts 181°
2026-05-05 23:14 39.86401 -104.67255 5363 ft 3 kts 181°
2026-05-05 23:15 39.86418 -104.67255 5363 ft 3 kts 181°
2026-05-05 23:15 39.86436 -104.67254 5364 ft 2 kts 181°
2026-05-05 23:15 39.86449 -104.67254 5364 ft 0 kts 181°
2026-05-05 23:18 39.86448 -104.67254 5363 ft 2 kts 181°
2026-05-05 23:18 39.86421 -104.67274 5363 ft 8 kts 238°
2026-05-05 23:18 39.86416 -104.67364 5365 ft 11 kts 270°
2026-05-05 23:18 39.86416 -104.67461 5365 ft 11 kts 270°
2026-05-05 23:19 39.86417 -104.67554 5365 ft 10 kts 271°
2026-05-05 23:19 39.86418 -104.67645 5365 ft 10 kts 271°
2026-05-05 23:19 39.86418 -104.67734 5365 ft 10 kts 270°
2026-05-05 23:19 39.86419 -104.67821 5365 ft 9 kts 271°
2026-05-05 23:20 39.86421 -104.67905 5365 ft 9 kts 271°
2026-05-05 23:20 39.86423 -104.67987 5364 ft 9 kts 272°
2026-05-05 23:20 39.86426 -104.68067 5363 ft 9 kts 273°
2026-05-05 23:20 39.86428 -104.68144 5357 ft 8 kts 271°
2026-05-05 23:21 39.86429 -104.68219 5364 ft 8 kts 270°
2026-05-05 23:21 39.86430 -104.68292 5365 ft 8 kts 270°
2026-05-05 23:21 39.86430 -104.68365 5365 ft 9 kts 270°
2026-05-05 23:21 39.86430 -104.68443 5365 ft 8 kts 270°
2026-05-05 23:22 39.86399 -104.68500 5364 ft 8 kts 202°
2026-05-05 23:22 39.86338 -104.68504 5362 ft 10 kts 180°
2026-05-05 23:22 39.86270 -104.68505 5364 ft 10 kts 180°
2026-05-05 23:22 39.86199 -104.68505 5363 ft 11 kts 180°
2026-05-05 23:23 39.86119 -104.68506 5363 ft 12 kts 180°
2026-05-05 23:23 39.86033 -104.68508 5363 ft 13 kts 181°
2026-05-05 23:23 39.85940 -104.68509 5365 ft 14 kts 181°
2026-05-05 23:23 39.85840 -104.68511 5364 ft 14 kts 180°
2026-05-05 23:24 39.85739 -104.68511 5363 ft 14 kts 180°
2026-05-05 23:24 39.85640 -104.68511 5364 ft 14 kts 180°
2026-05-05 23:24 39.85543 -104.68512 5363 ft 14 kts 180°
2026-05-05 23:24 39.85451 -104.68513 5364 ft 13 kts 180°
2026-05-05 23:25 39.85360 -104.68514 5362 ft 14 kts 180°
2026-05-05 23:25 39.85262 -104.68515 5363 ft 14 kts 180°
2026-05-05 23:25 39.85204 -104.68594 5365 ft 13 kts 266°
2026-05-05 23:25 39.85201 -104.68712 5361 ft 13 kts 268°
2026-05-05 23:26 39.85199 -104.68827 5364 ft 13 kts 269°
2026-05-05 23:26 39.85197 -104.68940 5365 ft 12 kts 269°
2026-05-05 23:26 39.85196 -104.69049 5365 ft 12 kts 269°
2026-05-05 23:26 39.85195 -104.69157 5365 ft 12 kts 271°
2026-05-05 23:27 39.85198 -104.69270 5365 ft 13 kts 271°
2026-05-05 23:27 39.85201 -104.69388 5365 ft 13 kts 271°
2026-05-05 23:27 39.85203 -104.69513 5365 ft 16 kts 271°
2026-05-05 23:27 39.85235 -104.69647 5365 ft 16 kts 330°
2026-05-05 23:28 39.85344 -104.69656 5363 ft 16 kts
2026-05-05 23:28 39.85552 -104.69652 5366 ft 60 kts
2026-05-05 23:28 39.86206 -104.69646 5363 ft 126 kts
2026-05-05 23:28 39.87271 -104.69621 5421 ft 175 kts
2026-05-05 23:29 39.88553 -104.69595 6079 ft 190 kts
2026-05-05 23:29 39.89910 -104.69536 6856 ft 200 kts
2026-05-05 23:29 39.91335 -104.69433 7316 ft 216 kts
2026-05-05 23:29 39.92899 -104.69426 7493 ft 238 kts
2026-05-05 23:30 39.94621 -104.69432 7744 ft 255 kts
2026-05-05 23:30 39.96431 -104.69421 8137 ft 269 kts
2026-05-05 23:30 39.98368 -104.69393 8526 ft 285 kts
2026-05-05 23:30 40.00367 -104.69356 9302 ft 288 kts
2026-05-05 23:31 40.02374 -104.69315 9797 ft 290 kts
2026-05-05 23:31 40.04351 -104.68822 10019 ft 292 kts 26°
2026-05-05 23:31 40.06147 -104.67463 10234 ft 310 kts 32°
2026-05-05 23:31 40.08029 -104.65887 10463 ft 331 kts 33°
2026-05-05 23:32 40.09988 -104.64216 10998 ft 342 kts 33°
2026-05-05 23:32 40.12004 -104.62494 11641 ft 347 kts 32°
2026-05-05 23:32 40.14049 -104.60753 12317 ft 354 kts 32°
2026-05-05 23:32 40.16134 -104.58984 13027 ft 358 kts 31°
2026-05-05 23:33 40.18212 -104.57226 13769 ft 362 kts 31°
2026-05-05 23:33 40.20348 -104.55422 14342 ft 369 kts 31°
2026-05-05 23:33 40.22519 -104.53591 14968 ft 373 kts 30°
2026-05-05 23:33 40.24714 -104.51737 15624 ft 377 kts 30°
2026-05-05 23:34 40.26931 -104.49865 16280 ft 381 kts 30°
2026-05-05 23:34 40.29169 -104.47974 16908 ft 385 kts 29°
2026-05-05 23:34 40.31428 -104.46064 17546 ft 389 kts 29°
2026-05-05 23:34 40.33713 -104.44130 18161 ft 393 kts 28°
2026-05-05 23:35 40.36023 -104.42174 18723 ft 397 kts 28°
2026-05-05 23:35 40.38353 -104.40198 19250 ft 401 kts 28°
2026-05-05 23:35 40.40703 -104.38203 19793 ft 404 kts 28°
2026-05-05 23:35 40.43044 -104.36214 20326 ft 407 kts 28°
2026-05-05 23:36 40.45434 -104.34182 20860 ft 411 kts 28°
2026-05-05 23:36 40.47843 -104.32132 21380 ft 414 kts 28°
2026-05-05 23:36 40.50277 -104.30058 21885 ft 418 kts 28°
2026-05-05 23:36 40.52724 -104.27972 22402 ft 421 kts 28°
2026-05-05 23:37 40.55194 -104.25866 22911 ft 425 kts 28°
2026-05-05 23:37 40.57669 -104.23703 23419 ft 430 kts 33°
2026-05-05 23:37 40.59886 -104.20992 23840 ft 439 kts 43°
2026-05-05 23:37 40.61966 -104.18034 24255 ft 442 kts 44°
2026-05-05 23:38 40.64024 -104.15001 24665 ft 445 kts 45°
2026-05-05 23:38 40.66091 -104.11940 25045 ft 449 kts 45°
2026-05-05 23:38 40.68182 -104.08868 25430 ft 452 kts 44°
2026-05-05 23:38 40.70295 -104.05793 25827 ft 454 kts 44°
2026-05-05 23:39 40.72406 -104.02745 26204 ft 457 kts 44°
2026-05-05 23:39 40.74567 -103.99640 26563 ft 460 kts 44°
2026-05-05 23:39 40.76739 -103.96525 26926 ft 463 kts 44°
2026-05-05 23:39 40.78930 -103.93384 27266 ft 466 kts 44°
2026-05-05 23:40 40.81129 -103.90226 27615 ft 469 kts 44°
2026-05-05 23:40 40.83349 -103.87036 27949 ft 472 kts 44°
2026-05-05 23:40 40.85580 -103.83824 28274 ft 475 kts 44°
2026-05-05 23:40 40.87822 -103.80594 28591 ft 478 kts 44°
2026-05-05 23:41 40.89315 -103.78439 28796 ft 480 kts 44°
2026-05-05 23:41 40.91580 -103.75168 29079 ft 483 kts 44°
2026-05-05 23:41 40.94606 -103.70791 29457 ft 487 kts 44°
2026-05-05 23:41 40.96896 -103.67476 29759 ft 490 kts 44°
2026-05-05 23:42 40.98453 -103.65219 29962 ft 492 kts 44°
2026-05-05 23:42 41.00768 -103.61860 30211 ft 495 kts 44°
2026-05-05 23:42 41.03064 -103.58526 30431 ft 497 kts 44°
2026-05-05 23:42 41.05398 -103.55132 30664 ft 500 kts 44°
2026-05-05 23:43 41.07748 -103.51710 30900 ft 502 kts 44°
2026-05-05 23:43 41.10102 -103.48279 31193 ft 502 kts 44°
2026-05-05 23:43 41.12448 -103.44854 31528 ft 502 kts 44°
2026-05-05 23:43 41.14794 -103.41426 31842 ft 502 kts 44°
2026-05-05 23:44 41.17139 -103.37995 32137 ft 502 kts 43°
2026-05-05 23:44 41.19495 -103.34547 32405 ft 503 kts 43°
2026-05-05 23:44 41.21844 -103.31105 32705 ft 503 kts 43°
2026-05-05 23:44 41.24192 -103.27659 33009 ft 503 kts 43°
2026-05-05 23:45 41.26545 -103.24206 33308 ft 503 kts 43°
2026-05-05 23:45 41.28896 -103.20749 33592 ft 504 kts 43°
2026-05-05 23:45 41.31245 -103.17291 33877 ft 504 kts 43°
2026-05-05 23:45 41.33594 -103.13829 34116 ft 504 kts 43°
2026-05-05 23:46 41.35948 -103.10357 34323 ft 505 kts 43°
2026-05-05 23:46 41.38271 -103.06924 34501 ft 506 kts 43°
2026-05-05 23:46 41.40624 -103.03443 34706 ft 506 kts 43°
2026-05-05 23:46 41.42980 -102.99954 34918 ft 506 kts 43°
2026-05-05 23:47 41.47707 -102.92943 34990 ft 509 kts 43°
2026-05-05 23:47 41.52166 -102.85632 34954 ft 513 kts 59°
2026-05-05 23:48 41.55281 -102.77055 34980 ft 512 kts 63°
2026-05-05 23:48 41.58238 -102.68403 34983 ft 511 kts 63°
2026-05-05 23:49 41.61224 -102.59852 34989 ft 511 kts 63°
2026-05-05 23:49 41.64280 -102.51265 34999 ft 512 kts 62°
2026-05-05 23:50 41.67353 -102.42664 34998 ft 513 kts 62°
2026-05-05 23:50 41.70426 -102.34026 35001 ft 514 kts 63°
2026-05-05 23:51 41.73498 -102.25353 35012 ft 515 kts 63°
2026-05-05 23:51 41.76549 -102.16706 35014 ft 517 kts 63°
2026-05-05 23:52 41.79615 -102.07992 35016 ft 518 kts 63°
2026-05-05 23:52 41.82687 -101.99233 35020 ft 519 kts 63°
2026-05-05 23:53 41.85756 -101.90455 35026 ft 520 kts 63°
2026-05-05 23:53 41.88822 -101.81658 35028 ft 521 kts 63°
2026-05-05 23:54 41.91887 -101.72838 35021 ft 521 kts 63°
2026-05-05 23:54 41.94944 -101.64010 35020 ft 521 kts 63°
2026-05-05 23:55 41.97979 -101.55220 35013 ft 522 kts 63°
2026-05-05 23:55 42.01031 -101.46353 35008 ft 521 kts 63°
2026-05-05 23:56 42.04071 -101.37491 35012 ft 521 kts 64°
2026-05-05 23:56 42.07105 -101.28617 35031 ft 522 kts 64°
2026-05-05 23:57 42.10119 -101.19776 35010 ft 522 kts 64°
2026-05-05 23:57 42.13150 -101.10855 35012 ft 523 kts 64°
2026-05-05 23:58 42.16174 -101.01928 35002 ft 524 kts 64°
2026-05-05 23:58 42.19195 -100.92978 35005 ft 524 kts 64°
2026-05-05 23:59 42.22215 -100.84001 35012 ft 525 kts 64°
2026-05-05 23:59 42.25212 -100.75067 35008 ft 526 kts 64°
2026-05-06 00:00 42.28229 -100.66041 35008 ft 526 kts 64°
2026-05-06 00:00 42.31233 -100.57024 35008 ft 527 kts 65°
2026-05-06 00:01 42.34246 -100.47952 35010 ft 528 kts 65°
2026-05-06 00:01 42.37244 -100.38893 35011 ft 528 kts 65°
2026-05-06 00:02 42.40219 -100.29872 35018 ft 529 kts 65°
2026-05-06 00:02 42.43210 -100.20775 35020 ft 529 kts 65°
2026-05-06 00:03 42.46194 -100.11665 35017 ft 529 kts 65°
2026-05-06 00:03 42.49172 -100.02548 35018 ft 529 kts 65°
2026-05-06 00:04 42.52206 -99.93430 35009 ft 529 kts 64°
2026-05-06 00:04 42.55337 -99.84401 35027 ft 529 kts 63°
2026-05-06 00:05 42.60021 -99.70880 35029 ft 530 kts 63°
2026-05-06 00:06 42.63128 -99.61801 35028 ft 530 kts 64°
2026-05-06 00:06 42.66222 -99.52709 35037 ft 530 kts 64°
2026-05-06 00:07 42.69313 -99.43595 35037 ft 530 kts 64°
2026-05-06 00:07 42.72401 -99.34462 35037 ft 531 kts 64°
2026-05-06 00:08 42.75480 -99.25328 35039 ft 531 kts 64°
2026-05-06 00:08 42.78551 -99.16189 35043 ft 531 kts 64°
2026-05-06 00:09 42.81615 -99.07039 35038 ft 531 kts 64°
2026-05-06 00:09 42.84675 -98.97871 35040 ft 531 kts 64°
2026-05-06 00:10 42.87707 -98.88754 35040 ft 531 kts 64°
2026-05-06 00:10 42.90756 -98.79557 35036 ft 532 kts 64°
2026-05-06 00:11 42.93801 -98.70339 35048 ft 532 kts 64°
2026-05-06 00:11 42.96838 -98.61113 35024 ft 532 kts 64°
2026-05-06 00:12 42.99854 -98.51921 35025 ft 532 kts 64°
2026-05-06 00:12 43.02879 -98.42670 35022 ft 533 kts 64°
2026-05-06 00:13 43.05899 -98.33402 35014 ft 533 kts 64°
2026-05-06 00:13 43.08909 -98.24131 35022 ft 533 kts 64°
2026-05-06 00:14 43.11914 -98.14847 35021 ft 533 kts 64°
2026-05-06 00:14 43.14909 -98.05558 35029 ft 534 kts 64°
2026-05-06 00:15 43.17883 -97.96302 35037 ft 534 kts 65°
2026-05-06 00:15 43.20870 -97.86974 35046 ft 534 kts 65°
2026-05-06 00:16 43.23833 -97.77690 35050 ft 534 kts 65°
2026-05-06 00:16 43.26803 -97.68349 35051 ft 534 kts 65°
2026-05-06 00:17 43.29768 -97.58993 35052 ft 534 kts 65°
2026-05-06 00:17 43.32722 -97.49635 35048 ft 534 kts 65°
2026-05-06 00:18 43.35674 -97.40253 35039 ft 535 kts 65°
2026-05-06 00:18 43.38616 -97.30866 35037 ft 535 kts 65°
2026-05-06 00:19 43.41534 -97.21525 35030 ft 535 kts 65°
2026-05-06 00:19 43.44462 -97.12118 35027 ft 535 kts 65°
2026-05-06 00:20 43.47385 -97.02694 35015 ft 536 kts 65°
2026-05-06 00:20 43.50306 -96.93241 34999 ft 536 kts 65°
2026-05-06 00:21 43.53221 -96.83774 34997 ft 537 kts 65°
2026-05-06 00:21 43.56130 -96.74291 34995 ft 537 kts 65°
2026-05-06 00:22 43.59034 -96.64788 34994 ft 537 kts 65°
2026-05-06 00:22 43.61912 -96.55338 34997 ft 537 kts 65°
2026-05-06 00:23 43.64806 -96.45800 35000 ft 538 kts 65°
2026-05-06 00:23 43.67693 -96.36247 34990 ft 538 kts 65°
2026-05-06 00:24 43.70565 -96.26712 34991 ft 537 kts 65°
2026-05-06 00:24 43.73431 -96.17157 34993 ft 537 kts 65°
2026-05-06 00:25 43.76267 -96.07671 34999 ft 537 kts 65°
2026-05-06 00:25 43.79113 -95.98114 35004 ft 537 kts 65°
2026-05-06 00:26 43.81954 -95.88539 34721 ft 541 kts 65°
2026-05-06 00:26 43.83386 -95.83704 34168 ft 543 kts 65°
2026-05-06 00:26 43.84814 -95.78866 33632 ft 541 kts 65°
2026-05-06 00:26 43.86231 -95.74055 33185 ft 537 kts 65°
2026-05-06 00:27 43.87638 -95.69270 32712 ft 534 kts 65°
2026-05-06 00:27 43.88564 -95.66115 32422 ft 531 kts 65°
2026-05-06 00:27 43.89950 -95.61386 31991 ft 528 kts 65°
2026-05-06 00:27 43.91325 -95.56687 31565 ft 525 kts 65°
2026-05-06 00:28 43.92694 -95.52000 31144 ft 522 kts 65°
2026-05-06 00:28 43.94050 -95.47352 30727 ft 519 kts 65°
2026-05-06 00:28 43.95400 -95.42715 30306 ft 517 kts 65°
2026-05-06 00:28 43.96742 -95.38095 29834 ft 515 kts 65°
2026-05-06 00:29 43.98075 -95.33499 29366 ft 511 kts 65°
2026-05-06 00:29 43.99397 -95.28931 28907 ft 508 kts 65°
2026-05-06 00:29 44.00707 -95.24397 28467 ft 504 kts 65°
2026-05-06 00:29 44.02009 -95.19881 28030 ft 501 kts 65°
2026-05-06 00:30 44.03297 -95.15407 27604 ft 497 kts 65°
2026-05-06 00:30 44.04575 -95.10958 27177 ft 494 kts 65°
2026-05-06 00:30 44.05842 -95.06541 26756 ft 491 kts 65°
2026-05-06 00:30 44.07102 -95.02142 26342 ft 488 kts 64°
2026-05-06 00:31 44.08337 -94.97822 25924 ft 485 kts 64°
2026-05-06 00:31 44.09577 -94.93476 25503 ft 482 kts 64°
2026-05-06 00:31 44.10809 -94.89154 25075 ft 480 kts 64°
2026-05-06 00:31 44.12035 -94.84843 24651 ft 477 kts 64°
2026-05-06 00:32 44.13253 -94.80553 24226 ft 475 kts 64°
2026-05-06 00:32 44.14464 -94.76281 23800 ft 473 kts 64°
2026-05-06 00:32 44.15670 -94.72019 23346 ft 471 kts 64°
2026-05-06 00:32 44.16866 -94.67785 22898 ft 468 kts 64°
2026-05-06 00:33 44.18052 -94.63577 22467 ft 463 kts 64°
2026-05-06 00:33 44.19224 -94.59414 22052 ft 459 kts 64°
2026-05-06 00:33 44.20378 -94.55302 21647 ft 454 kts 65°
2026-05-06 00:33 44.21524 -94.51217 21249 ft 449 kts 65°
2026-05-06 00:34 44.22642 -94.47226 20851 ft 444 kts 65°
2026-05-06 00:34 44.23757 -94.43240 20466 ft 439 kts 65°
2026-05-06 00:34 44.24857 -94.39299 20088 ft 433 kts 66°
2026-05-06 00:34 44.25942 -94.35406 19711 ft 428 kts 66°
2026-05-06 00:35 44.27013 -94.31558 19334 ft 423 kts 66°
2026-05-06 00:35 44.28070 -94.27754 18963 ft 417 kts 66°
2026-05-06 00:35 44.29111 -94.24004 18591 ft 412 kts 66°
2026-05-06 00:35 44.30136 -94.20305 18225 ft 406 kts 67°
2026-05-06 00:36 44.31147 -94.16650 17814 ft 400 kts 67°
2026-05-06 00:36 44.32141 -94.13048 17475 ft 393 kts 67°
2026-05-06 00:36 44.33113 -94.09523 17147 ft 386 kts 67°
2026-05-06 00:36 44.34072 -94.06040 16797 ft 380 kts 67°
2026-05-06 00:37 44.35015 -94.02609 16452 ft 375 kts 67°
2026-05-06 00:37 44.35935 -93.99262 16103 ft 371 kts 67°
2026-05-06 00:37 44.36852 -93.95917 15766 ft 366 kts 67°
2026-05-06 00:37 44.37759 -93.92606 15434 ft 362 kts 67°
2026-05-06 00:38 44.38657 -93.89325 15085 ft 359 kts 67°
2026-05-06 00:38 44.39542 -93.86085 14764 ft 355 kts 67°
2026-05-06 00:38 44.40418 -93.82872 14433 ft 352 kts 67°
2026-05-06 00:38 44.41286 -93.79688 14117 ft 348 kts 67°
2026-05-06 00:39 44.42143 -93.76537 13788 ft 345 kts 67°
2026-05-06 00:39 44.42995 -93.73400 13450 ft 342 kts 67°
2026-05-06 00:39 44.43823 -93.70348 13132 ft 338 kts 67°
2026-05-06 00:39 44.44651 -93.67294 12828 ft 334 kts 67°
2026-05-06 00:40 44.45466 -93.64279 12518 ft 330 kts 67°
2026-05-06 00:40 44.46276 -93.61285 12216 ft 326 kts 67°
2026-05-06 00:40 44.47074 -93.58328 11914 ft 323 kts 67°
2026-05-06 00:40 44.47866 -93.55391 11604 ft 320 kts 67°
2026-05-06 00:41 44.48649 -93.52485 11300 ft 318 kts 66°
2026-05-06 00:41 44.49424 -93.49605 10996 ft 315 kts 66°
2026-05-06 00:41 44.50191 -93.46749 10717 ft 312 kts 66°
2026-05-06 00:41 44.50950 -93.43918 10430 ft 309 kts 66°
2026-05-06 00:42 44.51699 -93.41124 10271 ft 302 kts 66°
2026-05-06 00:42 44.52425 -93.38408 10142 ft 294 kts 66°
2026-05-06 00:42 44.53131 -93.35766 10023 ft 286 kts 66°
2026-05-06 00:42 44.53822 -93.33178 9818 ft 282 kts 66°
2026-05-06 00:43 44.54505 -93.30620 9587 ft 278 kts 66°
2026-05-06 00:43 44.55179 -93.28093 9363 ft 275 kts 66°
2026-05-06 00:43 44.55845 -93.25595 9118 ft 272 kts 66°
2026-05-06 00:43 44.56504 -93.23118 8865 ft 270 kts 66°
2026-05-06 00:44 44.57158 -93.20659 8605 ft 268 kts 66°
2026-05-06 00:44 44.57809 -93.18211 8343 ft 267 kts 66°
2026-05-06 00:44 44.58454 -93.15780 8086 ft 265 kts 66°
2026-05-06 00:44 44.59094 -93.13363 7831 ft 264 kts 66°
2026-05-06 00:45 44.59722 -93.10989 7601 ft 262 kts 66°
2026-05-06 00:45 44.60345 -93.08632 7490 ft 254 kts 66°
2026-05-06 00:45 44.60950 -93.06341 7375 ft 247 kts 66°
2026-05-06 00:45 44.61543 -93.04093 7266 ft 244 kts 66°
2026-05-06 00:46 44.62134 -93.01853 7186 ft 242 kts 66°
2026-05-06 00:46 44.62734 -92.99698 7019 ft 232 kts 57°
2026-05-06 00:46 44.63757 -92.98072 6840 ft 215 kts 35°
2026-05-06 00:46 44.64919 -92.96774 6683 ft 211 kts 32°
2026-05-06 00:47 44.66060 -92.95533 6528 ft 206 kts 32°
2026-05-06 00:47 44.67181 -92.94305 6349 ft 202 kts 33°
2026-05-06 00:47 44.68283 -92.93091 6184 ft 201 kts 32°
2026-05-06 00:47 44.69489 -92.92311 5965 ft 189 kts
2026-05-06 00:48 44.70746 -92.92414 5760 ft 175 kts 341°
2026-05-06 00:48 44.71837 -92.93133 5586 ft 168 kts 323°
2026-05-06 00:48 44.72753 -92.94069 5398 ft 161 kts 321°
2026-05-06 00:48 44.73624 -92.94988 5213 ft 152 kts 321°
2026-05-06 00:49 44.74462 -92.95874 4978 ft 149 kts 321°
2026-05-06 00:49 44.75287 -92.96746 4834 ft 149 kts 321°
2026-05-06 00:49 44.76127 -92.97633 4622 ft 152 kts 322°
2026-05-06 00:49 44.76971 -92.98523 4413 ft 149 kts 322°
2026-05-06 00:50 44.77773 -92.99367 4225 ft 139 kts 321°
2026-05-06 00:50 44.78466 -93.00220 4060 ft 129 kts 307°
2026-05-06 00:50 44.78991 -93.01210 3915 ft 126 kts 309°
2026-05-06 00:50 44.79525 -93.02205 3757 ft 128 kts 306°
2026-05-06 00:51 44.80028 -93.03255 3581 ft 130 kts 304°
2026-05-06 00:51 44.80510 -93.04324 3402 ft 129 kts 303°
2026-05-06 00:51 44.80983 -93.05400 3230 ft 129 kts 303°
2026-05-06 00:51 44.81448 -93.06471 3053 ft 127 kts 303°
2026-05-06 00:52 44.81912 -93.07543 2884 ft 128 kts 303°
2026-05-06 00:52 44.82373 -93.08610 2720 ft 128 kts 303°
2026-05-06 00:52 44.82837 -93.09681 2558 ft 129 kts 303°
2026-05-06 00:52 44.83300 -93.10753 2401 ft 128 kts 303°
2026-05-06 00:53 44.83766 -93.11832 2206 ft 127 kts 302°
2026-05-06 00:53 44.84222 -93.12897 2007 ft 127 kts 302°
2026-05-06 00:53 44.84666 -93.13965 1816 ft 127 kts 302°
2026-05-06 00:53 44.85121 -93.15019 1626 ft 129 kts 303°
2026-05-06 00:54 44.85606 -93.16088 1429 ft 127 kts 303°
2026-05-06 00:54 44.86086 -93.17122 1287 ft 125 kts 302°
2026-05-06 00:54 44.86532 -93.18193 1152 ft 129 kts 300°
2026-05-06 00:54 44.86992 -93.19300 996 ft 129 kts 302°
2026-05-06 00:55 44.87453 -93.20358 828 ft 125 kts 303°
2026-05-06 00:55 44.87871 -93.21315 824 ft 100 kts 302°
2026-05-06 00:55 44.88165 -93.21991 821 ft 41 kts 301°
2026-05-06 00:55 44.88219 -93.22167 825 ft 16 kts 259°
2026-05-06 00:56 44.88196 -93.22215 824 ft 0 kts 226°
2026-05-06 00:56 44.88188 -93.22227 825 ft 5 kts 225°
2026-05-06 00:56 44.88149 -93.22282 825 ft 10 kts 225°
2026-05-06 00:56 44.88086 -93.22370 821 ft 15 kts 225°
2026-05-06 00:57 44.88011 -93.22476 823 ft 15 kts 225°
2026-05-06 00:57 44.87938 -93.22580 823 ft 15 kts 225°
2026-05-06 00:57 44.87868 -93.22681 824 ft 14 kts 225°
2026-05-06 00:57 44.87800 -93.22777 821 ft 15 kts 225°
2026-05-06 00:58 44.87725 -93.22884 822 ft 15 kts 225°
2026-05-06 00:58 44.87639 -93.22901 824 ft 13 kts 155°
2026-05-06 00:58 44.87586 -93.22902 824 ft 7 kts 191°
2026-05-06 00:58 44.87561 -93.22908 824 ft 3 kts 187°
2026-05-06 00:59 44.87538 -93.22900 823 ft 4 kts 149°
2026-05-06 00:59 44.87512 -93.22867 824 ft 6 kts 136°
2026-05-06 00:59 44.87495 -93.22843 824 ft 0 kts 135°